Temperature
28 28 27 27 28 29 29 29 28 28 28 28 29 29 29 28 28 27 26 25 24 23 21 21 20 19 18 18 17 16 16 15 15 14 14 13 13 12 12 12 12 12 11 11
28 29 29 29 29 30 30 30 29 29 29 29 29 29 28 28 27 27 26 25 24 22 21 20 20 19 18 17 17 16 15 15 15 14 14 13 13 13 12 12 12 12 11 11
26 28 28 27 29 30 30 30 30 29 29 29 29 29 28 27 27 26 26 25 24 22 21 20 20 19 18 17 17 16 15 15 15 14 14 13 13 13 12 12 12 12 12 11
27 27 26 28 30 30 30 30 30 30 30 30 29 28 28 27 26 26 25 25 24 23 22 20 20 19 18 17 17 16 16 15 15 14 14 14 13 13 12 12 12 12 12 11
26 26 27 28 28 27 27 28 30 30 30 29 29 28 28 27 26 25 25 24 24 23 22 21 20 19 18 17 17 16 16 16 15 15 14 14 13 13 13 12 12 12 11 11
26 26 25 26 26 26 26 25 27 28 28 29 28 27 27 26 26 25 25 24 23 22 22 21 20 19 18 18 17 17 16 16 15 15 15 14 14 13 13 12 12 12 11 11
26 25 26 25 25 25 23 22 24 26 27 27 27 27 26 26 26 25 24 24 23 22 22 21 20 19 18 18 17 17 16 16 15 15 15 14 14 13 13 12 12 12 12 12
24 23 22 22 23 22 20 21 23 24 25 26 26 26 26 26 25 24 24 23 22 22 21 20 20 19 18 18 17 17 16 16 15 15 15 14 13 13 13 12 12 12 12 12
24 22 20 19 19 20 21 21 23 23 24 24 25 25 25 24 23 23 23 22 22 21 21 20 19 19 18 17 17 16 16 16 15 15 15 14 13 13 12 12 12 12 12 12
23 21 19 20 20 20 21 22 22 22 23 23 23 23 23 22 22 22 22 21 21 20 20 19 18 18 18 17 16 16 16 15 15 15 14 14 13 13 13 12 12 12 12 12
22 21 20 20 21 21 21 21 21 21 21 21 21 21 21 20 20 20 20 20 20 20 19 18 18 17 17 16 16 16 15 15 15 14 14 14 14 13 13 13 13 13 12 12
22 22 22 20 21 21 21 21 20 20 20 19 19 19 19 19 19 19 19 19 18 18 18 18 17 17 16 16 15 15 15 15 14 14 14 14 14 14 14 14 13 13 13 12
22 22 21 21 21 21 21 20 20 19 19 18 18 18 17 17 17 17 17 17 17 17 17 17 16 16 15 15 15 14 14 14 14 14 14 14 14 14 14 14 14 13 13 13
20 20 20 20 20 19 20 19 19 18 18 17 17 17 16 16 16 16 16 15 15 15 15 15 15 15 15 14 14 14 14 13 13 13 13 13 13 13 13 13 13 13 13 13
20 19 19 19 18 18 18 18 18 17 17 16 16 16 15 15 15 15 15 15 14 14 14 14 14 14 14 13 13 13 13 13 13 13 13 13 13 13 13 13 13 13 13 13
18 18 18 17 17 17 17 17 16 16 16 16 15 15 15 14 14 14 14 13 13 13 13 13 13 13 12 12 12 12 12 12 12 12 13 13 13 13 13 13 13 13 13 12
18 17 17 16 16 16 16 16 15 15 15 15 15 14 14 14 13 13 13 12 12 12 12 12 12 12 11 11 11 11 12 12 12 12 12 13 13 13 13 13 13 13 12 12
16 16 15 15 15 15 15 15 15 14 14 14 14 14 13 13 12 12 12 11 12 12 12 11 11 11 11 11 11 11 11 11 12 12 12 12 13 13 13 13 12 12 12 12
15 15 15 15 15 14 14 14 14 14 13 13 13 13 12 12 12 11 11 11 11 11 11 11 10 10 10 10 10 10 10 11 11 11 12 12 12 12 12 12 12 12 12 11
15 14 14 14 14 14 14 14 13 13 13 13 12 12 12 12 11 11 11 11 11 11 11 10 10 10 10 10 10 10 10 10 10 11 11 11 12 12 12 12 12 11 11 11
14 14 14 14 14 13 13 13 13 12 12 12 12 12 12 11 11 11 11 11 11 11 10 10 10 10 10 9 9 9 9 9 10 10 10 11 11 11 11 11 11 11 11 10
13 13 13 13 13 12 12 12 12 12 12 12 12 11 11 11 11 11 11 11 11 11 10 10 10 10 9 9 8 8 9 9 9 9 10 10 10 10 10 10 10 10 10 10
12 12 12 12 12 12 12 12 12 12 12 11 11 11 11 11 11 11 11 11 11 10 10 10 9 9 9 8 8 8 8 8 8 8 9 9 9 9 10 10 10 10 9 9
12 12 11 11 11 11 11 11 11 11 11 11 11 11 11 11 11 11 11 11 10 10 10 9 9 9 8 8 8 8 8 7 7 8 8 8 8 9 9 9 9 9 9 9
11 11 11 11 11 11 11 11 11 11 11 11 11 11 11 11 11 11 10 10 10 10 9 9 9 8 8 8 7 7 7 7 7 7 7 7 7 7 8 8 8 8 8 8
11 11 11 11 11 11 11 11 11 11 11 11 11 11 10 10 10 10 10 9 9 9 9 8 8 8 7 7 6 6 6 6 6 6 6 6 6 7 7 7 7 7 7 7
11 11 11 11 11 11 10 10 10 10 10 10 9 9 9 9 9 9 9 9 8 8 8 8 7 7 6 6 6 5 5 5 5 5 5 5 6 6 6 6 6 6 7 7
Wind_Speed
10 9 10 11 13 11 10 9 9 7 7 6 4 4 5 6 7 8 10 10 10 11 10 9 8 7 6 5 5 3 3 3 4 4 4 4 5 5 5 6 8 7 7 7
14 14 11 13 14 12 11 10 10 8 5 3 6 5 4 4 5 7 9 10 11 11 10 10 9 8 7 6 6 6 5 5 4 3 4 5 5 6 6 6 6 6 7 7
15 15 13 13 12 11 9 8 8 6 2 4 4 4 4 4 5 6 8 9 10 11 10 10 9 8 7 7 6 6 6 5 5 5 5 5 6 6 6 6 6 7 7 7
13 14 16 10 8 8 8 7 5 3 3 3 4 5 5 7 6 6 7 8 9 10 11 11 10 10 8 8 8 7 7 7 6 5 5 5 5 6 6 6 6 7 7 8
12 15 14 10 5 5 7 5 4 1 3 2 3 2 5 10 9 7 6 6 7 9 11 11 11 11 10 8 8 8 8 7 6 5 5 5 5 6 6 6 6 7 8 8
12 14 13 4 3 4 4 3 8 6 4 2 2 1 2 8 9 8 7 7 8 9 9 10 11 11 10 9 8 8 7 6 5 5 5 6 6 6 7 6 7 8 8 8
13 12 7 5 3 4 1 2 8 7 5 5 3 2 3 4 6 6 6 7 8 8 8 9 10 10 9 9 8 7 6 5 5 5 6 7 8 7 7 7 8 9 9 9
8 8 3 10 8 5 3 6 9 10 9 8 6 5 2 1 4 5 6 7 8 7 7 8 9 9 9 8 7 5 5 5 5 5 7 8 6 6 7 8 9 10 10 11
1 2 5 7 5 2 3 4 8 10 10 9 8 8 6 5 4 2 4 5 6 6 6 7 7 8 8 7 5 5 5 6 5 6 6 7 7 9 8 9 10 9 8 7
4 7 7 7 6 4 3 6 9 11 12 12 11 11 10 8 5 3 2 1 4 6 6 6 6 6 6 5 5 5 6 5 6 7 8 9 9 9 9 8 8 7 6 6
4 7 8 7 7 8 9 10 11 13 13 14 14 14 13 11 10 7 5 4 2 2 3 5 6 6 6 5 5 5 6 6 7 9 10 9 9 9 10 9 9 8 7 7
3 5 5 5 6 9 10 11 13 13 14 15 15 14 14 12 11 10 8 7 5 3 1 1 3 5 4 4 4 5 6 7 8 8 8 9 8 9 14 15 15 16 16 13
7 7 9 8 9 10 10 11 12 13 14 14 14 14 14 12 11 11 10 10 8 6 4 2 1 2 4 4 5 6 8 8 8 9 9 9 8 8 8 9 14 16 17 17
8 7 9 9 10 10 11 12 12 13 13 13 13 13 13 12 12 11 11 10 9 8 7 5 4 3 2 3 4 6 9 10 10 9 10 10 10 9 9 9 7 7 11 17
8 9 10 9 10 11 11 11 11 12 12 12 12 12 12 11 11 10 10 10 10 9 9 8 7 6 5 5 6 8 10 10 9 11 10 10 10 10 10 10 8 7 7 7
9 10 10 10 10 10 10 11 10 10 11 11 11 10 10 10 10 10 10 11 10 10 9 8 8 8 9 9 9 9 10 14 14 12 12 11 11 11 10 8 7 7 6 6
8 8 7 7 7 8 8 9 9 10 10 11 11 11 10 10 10 9 10 11 10 9 8 7 8 10 11 11 11 11 12 13 14 13 12 12 11 11 10 9 8 6 6 5
10 8 7 6 6 6 7 8 9 10 10 11 11 11 10 10 10 10 10 11 11 10 7 8 9 11 12 11 10 11 12 13 13 13 11 10 10 9 9 9 8 8 7 5
6 5 3 4 5 6 7 9 9 10 10 11 11 11 10 10 9 9 10 11 12 9 7 9 11 12 12 10 12 10 13 15 14 13 11 11 11 10 10 9 8 6 5 5
3 3 4 6 7 8 9 10 11 11 11 11 11 11 11 11 10 10 10 10 9 8 8 9 11 12 10 10 13 14 15 16 15 14 12 11 11 10 9 8 6 6 5 4
4 5 7 9 10 10 11 11 11 12 12 12 12 12 11 11 11 10 10 12 7 5 8 10 9 9 9 12 16 16 16 15 15 14 13 11 10 9 8 7 5 5 4 5
7 8 9 11 12 12 12 12 13 14 13 12 13 12 12 11 12 11 9 9 9 5 7 10 11 9 11 14 15 15 15 15 14 13 12 10 10 10 8 6 4 4 4 4
8 9 11 12 13 13 14 14 14 14 13 13 13 13 13 11 12 12 12 9 9 7 8 11 10 9 12 13 14 14 14 14 13 12 11 10 10 8 7 6 3 2 3 3
10 11 12 12 13 14 15 14 14 12 13 14 14 13 11 11 10 10 10 10 9 8 11 9 9 10 11 11 12 11 11 12 12 11 11 11 10 8 6 4 3 3 3 4
11 12 13 13 13 13 13 13 14 13 13 11 12 12 11 10 10 11 11 13 13 12 12 10 8 8 10 11 10 10 10 10 11 11 11 10 9 7 6 4 3 3 3 3
10 11 11 11 12 11 12 12 11 11 12 12 12 12 12 11 12 11 10 13 15 12 11 10 9 9 10 10 10 10 9 9 10 10 10 9 8 7 5 4 5 4 4 4
12 10 9 10 10 11 11 11 12 12 12 12 13 13 13 13 12 12 13 12 12 11 10 9 9 9 9 9 9 8 8 8 8 8 8 8 7 7 6 6 5 4 4 4
Wind_Direction
285 259 236 247 255 261 262 268 273 269 258 227 176 163 156 162 165 162 159 163 160 159 160 162 164 166 180 188 181 185 198 227 232 231 240 250 257 262 267 271 279 282 288 288
291 283 277 275 276 272 269 269 268 265 269 126 130 135 141 152 165 165 168 173 170 167 165 167 172 178 184 185 179 177 200 231 239 236 249 254 258 257 261 265 274 279 282 285
284 291 293 281 277 273 269 268 270 266 210 138 141 138 145 154 174 180 179 180 175 172 170 170 176 177 180 181 183 187 199 222 234 235 247 255 268 275 277 280 283 282 280 280
275 279 275 281 289 288 266 246 248 234 172 158 146 146 160 165 175 184 188 184 173 173 170 172 174 175 180 188 188 195 204 217 226 232 245 253 259 266 269 275 278 279 279 279
274 275 272 278 310 328 322 315 334 237 148 130 122 201 196 168 170 179 186 170 165 175 179 173 174 175 178 194 196 202 211 215 224 232 246 256 262 266 270 272 274 274 277 275
258 268 278 313 13 349 321 324 1 16 35 25 153 280 82 146 165 176 175 161 166 179 173 166 173 173 177 193 203 210 216 216 222 227 240 253 261 263 267 268 271 275 276 276
258 268 280 14 45 37 327 30 342 354 17 358 16 23 124 173 164 157 162 165 169 176 171 170 170 169 181 198 207 210 213 214 220 226 235 244 247 248 252 261 268 272 275 274
257 272 295 9 24 55 15 349 338 359 4 2 355 339 337 98 125 148 163 175 177 176 172 167 168 173 188 205 208 207 212 222 228 231 249 260 253 254 254 258 265 267 267 268
229 137 110 74 70 42 8 4 352 2 353 354 351 358 11 39 74 125 162 173 173 172 168 165 171 179 197 202 201 210 220 230 238 245 247 254 260 262 259 254 258 264 271 278
69 101 111 114 123 118 58 32 23 17 15 12 13 15 19 30 41 49 51 152 163 162 172 176 177 185 194 190 193 210 226 235 243 247 249 247 245 253 259 261 263 266 275 284
92 107 107 76 66 71 60 48 41 36 30 27 27 25 25 29 26 30 36 30 55 146 176 182 178 184 187 187 198 218 231 240 249 254 255 252 249 246 249 251 254 256 265 271
92 100 99 84 61 60 62 57 49 43 39 37 33 28 28 28 27 25 25 25 26 21 353 224 187 186 188 190 204 228 243 248 256 260 261 261 258 258 244 239 243 233 233 243
81 86 95 84 61 51 57 60 58 53 46 41 36 32 31 28 29 26 25 22 15 5 359 357 317 214 199 202 217 237 255 262 269 272 273 276 273 272 274 258 241 237 236 238
81 83 83 73 65 49 47 52 55 51 45 40 34 30 28 25 24 23 21 15 11 4 358 349 331 309 287 258 251 255 263 267 268 271 270 270 272 271 271 273 271 260 240 233
83 90 90 76 65 55 46 45 45 40 34 31 28 23 20 17 15 14 13 9 4 357 355 349 339 333 334 312 293 285 281 278 275 275 275 274 273 272 270 269 268 271 275 245
97 90 85 75 60 49 42 37 32 26 22 19 16 12 9 7 5 6 4 2 356 348 344 340 341 345 340 324 307 292 281 274 275 279 278 275 272 272 273 271 270 271 272 277
106 93 78 66 53 38 29 24 17 10 6 2 356 354 354 355 354 358 355 351 344 336 334 343 355 348 334 320 310 303 298 293 281 275 272 271 269 268 271 271 270 269 269 265
83 77 65 47 28 16 8 4 359 356 352 345 342 344 343 342 343 345 342 339 331 326 340 358 360 342 324 320 319 313 307 300 297 292 284 278 274 270 269 271 273 277 281 266
91 77 49 18 2 355 350 344 341 341 339 336 334 333 330 329 332 332 331 326 317 318 344 351 345 328 319 334 336 318 308 302 299 294 291 289 285 277 270 269 269 267 270 278
58 17 353 342 342 341 335 334 333 331 328 326 323 321 319 320 323 321 318 308 310 324 330 332 324 313 320 346 342 323 311 304 300 297 292 290 290 286 275 269 267 267 271 271
342 337 335 334 333 330 329 328 324 318 316 315 313 311 312 313 312 308 302 303 310 317 314 308 302 315 332 334 321 313 309 306 303 300 296 293 292 289 285 281 270 263 269 269
333 330 329 326 325 322 322 319 313 309 309 308 308 309 309 305 301 299 293 293 299 308 307 308 314 332 330 319 314 310 308 307 307 304 303 302 297 291 287 288 281 282 282 277
322 321 318 317 315 313 312 309 306 306 307 308 305 300 296 294 294 294 295 297 305 312 308 308 315 314 308 309 309 310 313 315 312 310 310 309 303 298 299 294 283 282 289 295
311 310 310 310 309 307 303 303 305 304 299 294 290 287 287 290 291 295 303 312 312 308 306 306 298 299 297 305 310 317 320 321 320 319 320 317 311 311 317 320 324 333 320 304
303 303 302 303 303 303 307 307 304 299 298 303 306 310 308 309 311 315 316 315 316 313 312 312 308 301 303 309 314 321 322 324 326 323 317 315 317 325 329 335 349 347 336 337
298 296 299 299 298 295 297 301 306 313 316 316 316 318 320 318 315 314 313 315 318 319 315 317 325 319 322 323 325 326 326 325 324 325 327 327 332 334 339 354 3 1 5 8
300 299 297 300 309 314 319 319 317 317 318 318 319 320 317 313 313 316 316 316 316 318 324 327 328 327 326 327 328 329 331 330 332 337 340 342 348 354 356 2 7 6 11 19
Height
1468 1467 1470 1470 1465 1460 1461 1463 1471 1471 1470 1465 1463 1465 1468 1471 1475 1479 1484 1488 1492 1496 1500 1503 1506 1508 1510 1511 1512 1513 1513 1513 1513 1512 1512 1511 1510 1509 1508 1507 1506 1504 1503 1501
1469 1461 1459 1461 1456 1453 1454 1455 1457 1459 1461 1457 1460 1464 1467 1471 1474 1478 1483 1487 1491 1494 1497 1500 1503 1505 1507 1508 1509 1509 1509 1510 1510 1509 1508 1508 1507 1506 1505 1503 1502 1501 1499 1497
1475 1461 1460 1466 1455 1451 1451 1449 1452 1458 1457 1456 1459 1463 1467 1471 1474 1477 1481 1484 1488 1491 1494 1497 1499 1502 1503 1504 1505 1506 1506 1506 1506 1506 1505 1505 1504 1503 1501 1500 1498 1496 1494 1493
1470 1468 1480 1459 1443 1443 1445 1445 1445 1448 1450 1453 1457 1461 1465 1469 1473 1476 1479 1481 1484 1488 1491 1493 1496 1498 1499 1501 1501 1502 1503 1503 1503 1502 1502 1501 1500 1499 1497 1496 1494 1492 1490 1488
1468 1469 1462 1450 1446 1449 1454 1451 1446 1446 1449 1453 1456 1459 1461 1465 1470 1474 1476 1479 1481 1484 1487 1489 1491 1493 1495 1497 1498 1498 1499 1499 1499 1498 1498 1497 1495 1494 1493 1491 1489 1488 1486 1484
1464 1470 1472 1458 1451 1449 1455 1462 1453 1451 1451 1453 1456 1461 1462 1464 1468 1471 1474 1476 1478 1481 1483 1485 1487 1489 1491 1492 1494 1494 1495 1495 1495 1494 1493 1492 1491 1490 1488 1486 1485 1483 1481 1479
1462 1464 1460 1455 1452 1454 1470 1474 1463 1458 1456 1456 1457 1460 1463 1464 1465 1468 1471 1473 1475 1478 1480 1481 1483 1485 1486 1488 1489 1490 1490 1490 1490 1489 1488 1487 1486 1485 1483 1481 1480 1478 1476 1474
1461 1471 1474 1463 1460 1466 1472 1467 1463 1460 1459 1458 1459 1459 1460 1461 1463 1465 1468 1470 1472 1474 1476 1478 1479 1480 1482 1483 1485 1486 1486 1485 1485 1484 1484 1483 1482 1480 1478 1477 1474 1473 1471 1469
1455 1466 1467 1466 1469 1469 1467 1466 1465 1463 1462 1461 1460 1460 1460 1460 1462 1463 1465 1467 1469 1470 1472 1474 1475 1476 1478 1479 1481 1481 1481 1481 1480 1479 1479 1478 1477 1475 1473 1472 1470 1468 1467 1465
1456 1464 1467 1468 1469 1469 1469 1468 1466 1464 1464 1463 1461 1461 1461 1461 1461 1462 1463 1465 1466 1467 1469 1470 1471 1473 1473 1475 1475 1476 1476 1475 1475 1474 1473 1472 1471 1470 1469 1467 1466 1464 1462 1459
1458 1464 1467 1471 1470 1469 1469 1468 1467 1466 1466 1465 1464 1463 1463 1462 1462 1462 1463 1464 1464 1466 1466 1468 1469 1469 1470 1470 1471 1471 1471 1470 1469 1468 1467 1466 1465 1463 1462 1460 1459 1458 1455 1453
1459 1462 1465 1470 1470 1469 1469 1469 1470 1469 1469 1468 1467 1466 1465 1464 1464 1464 1463 1464 1464 1464 1465 1466 1466 1466 1467 1467 1467 1467 1466 1465 1463 1462 1461 1460 1458 1457 1455 1454 1452 1450 1448 1447
1459 1462 1465 1469 1470 1470 1470 1471 1471 1472 1472 1471 1470 1470 1469 1468 1467 1466 1465 1464 1464 1464 1464 1464 1464 1464 1464 1464 1463 1463 1462 1460 1458 1457 1455 1454 1452 1450 1449 1447 1446 1444 1442 1440
1464 1465 1468 1470 1471 1472 1472 1473 1473 1474 1474 1474 1473 1472 1471 1470 1469 1468 1467 1466 1465 1464 1463 1463 1462 1462 1461 1461 1460 1458 1457 1455 1453 1451 1449 1448 1446 1444 1442 1440 1439 1436 1435 1433
1466 1468 1471 1473 1474 1475 1475 1475 1476 1476 1476 1476 1475 1474 1473 1472 1471 1469 1468 1467 1465 1464 1463 1462 1460 1459 1458 1457 1455 1453 1452 1450 1448 1446 1444 1442 1440 1438 1436 1434 1432 1430 1429 1427
1470 1472 1474 1476 1477 1478 1478 1478 1479 1479 1478 1477 1477 1476 1474 1473 1472 1470 1468 1467 1465 1463 1461 1460 1458 1456 1454 1453 1451 1448 1446 1444 1442 1439 1437 1435 1433 1431 1429 1427 1425 1424 1422 1421
1472 1475 1477 1479 1480 1481 1481 1480 1480 1480 1479 1478 1477 1476 1474 1472 1471 1469 1467 1466 1464 1462 1460 1457 1455 1452 1451 1449 1446 1443 1441 1438 1435 1432 1430 1428 1426 1424 1422 1421 1419 1417 1416 1414
1476 1479 1481 1482 1482 1482 1482 1481 1481 1480 1479 1478 1476 1475 1473 1471 1469 1468 1466 1464 1462 1459 1457 1454 1451 1449 1447 1444 1441 1438 1435 1432 1429 1426 1424 1421 1419 1417 1415 1414 1412 1411 1409 1408
1480 1481 1482 1483 1483 1482 1482 1481 1480 1479 1478 1476 1474 1473 1471 1469 1467 1466 1464 1461 1459 1456 1454 1451 1448 1446 1443 1440 1437 1433 1430 1427 1423 1420 1417 1414 1412 1410 1408 1407 1405 1404 1402 1402
1481 1482 1482 1482 1482 1481 1481 1480 1478 1477 1475 1474 1472 1470 1468 1466 1465 1463 1460 1458 1456 1453 1450 1448 1445 1442 1439 1436 1432 1429 1425 1421 1418 1414 1411 1408 1406 1403 1401 1400 1398 1397 1396 1395
1481 1482 1482 1481 1481 1480 1479 1477 1476 1474 1472 1470 1469 1466 1465 1463 1461 1459 1456 1454 1451 1449 1446 1444 1441 1438 1435 1431 1427 1424 1420 1415 1412 1408 1405 1402 1399 1397 1395 1393 1392 1391 1390 1390
1481 1481 1481 1480 1479 1477 1476 1474 1472 1470 1468 1466 1464 1462 1460 1458 1456 1454 1452 1449 1447 1444 1441 1439 1437 1433 1430 1426 1422 1418 1414 1410 1406 1402 1399 1396 1394 1391 1389 1388 1386 1386 1386 1385
1480 1480 1479 1477 1476 1474 1472 1470 1468 1466 1464 1462 1460 1458 1456 1453 1451 1449 1446 1444 1442 1439 1437 1434 1431 1428 1424 1420 1416 1413 1408 1404 1401 1397 1394 1391 1389 1386 1384 1382 1382 1381 1381 1381
1478 1477 1476 1474 1472 1470 1468 1465 1463 1461 1459 1457 1454 1452 1450 1448 1445 1443 1441 1439 1436 1434 1431 1428 1425 1421 1418 1414 1411 1407 1403 1400 1396 1392 1389 1386 1383 1381 1380 1378 1378 1377 1377 1378
1475 1474 1472 1470 1468 1465 1463 1460 1458 1456 1453 1451 1449 1447 1445 1443 1441 1439 1436 1434 1431 1428 1426 1422 1419 1416 1412 1409 1405 1402 1398 1395 1391 1388 1384 1382 1380 1378 1376 1375 1374 1375 1374 1375
1471 1469 1467 1466 1464 1461 1459 1456 1454 1451 1449 1447 1445 1443 1441 1439 1436 1434 1431 1429 1426 1423 1420 1417 1414 1410 1407 1404 1400 1397 1393 1390 1387 1384 1381 1379 1377 1375 1374 1373 1372 1372 1372 1373
1467 1465 1462 1461 1459 1457 1455 1452 1450 1448 1446 1444 1441 1439 1437 1434 1432 1429 1426 1424 1421 1418 1415 1412 1409 1406 1402 1399 1396 1392 1389 1386 1383 1380 1378 1376 1374 1373 1372 1371 1371 1371 1371 1371